Home   Weather   Rawalpindi   Past weeks

Flag for Pakistan Past Weather in Rawalpindi, Pakistan — Yesterday and Last 2 Weeks

Now
79 °F

Passing clouds.


Feels Like: 81 °F
Forecast: 77 / 107 °F
Wind: 5 mph from Northeast

Location: Islamabad Airport

Current Time: May 25, 2017 at 6:12:55 am

Latest Report: May 25, 2017 at 5:00 am


Visibility: 3 mi

Pressure: 29.65 "Hg (28.00 "Hg at 501m altitude)

Humidity: 65%

Dew Point: 66 °F

Location of RawalpindiLocation

Past Weather in Rawalpindi — Graph

°F

Rawalpindi Temperature Yesterday

Maximum temperature yesterday: 102 °F (at 2:00 pm)
Minimum temperature yesterday: 79 °F (at 3:00 am)
Average temperature yesterday: 90 °F

High & Low Weather Summary for the Past Weeks

 TemperatureHumidityPressure
High102 °F (May 13, 3:00 pm)74% (May 22, 8:30 am)29.95 "Hg (May 22, 8:30 am)
Low72 °F (May 23, 5:00 am)20% (May 13, 3:00 pm)29.59 "Hg (May 15, 4:00 pm)
Average87 °F43%29.74 "Hg
* Reported May 10 5:00 am — May 25 5:00 am, Rawalpindi. Weather by CustomWeather, © 2017

Note: Actual official high and low records may vary slightly from our data, if they occured in-between our weather recording intervals... More about our weather records

Advertising

Rawalpindi Weather History for the Previous 24 Hours

Scroll right to see more
 ConditionsComfort  
Time TempWeatherWind HumidityBarometerVisibility
5:00 am
Thu, May 25
79 °FPassing clouds.5 mph65%29.65 "Hg3 mi
4:00 am79 °FClear.5 mph65%29.65 "Hg4 mi
2:00 am81 °FClear.No wind66%29.65 "Hg4 mi
1:00 am81 °FPassing clouds.9 mph66%29.68 "Hg4 mi
8:30 pm
Wed, May 24
88 °FPassing clouds.14 mph59%29.68 "Hg4 mi
8:00 pm88 °FPartly cloudy.12 mph59%29.68 "Hg4 mi
7:00 pm93 °FThunderstorms. Scattered clouds.30 mph41%29.65 "Hg4 mi
5:00 pm100 °FScattered clouds.12 mph33%29.65 "Hg4 mi
4:00 pm102 °FScattered clouds.12 mph27%29.65 "Hg4 mi
2:00 pm102 °FScattered clouds.16 mph27%29.71 "Hg4 mi
1:30 pm100 °FScattered clouds.18 mph29%29.74 "Hg4 mi
12:30 pm99 °FScattered clouds.18 mph31%29.77 "Hg4 mi
12:00 pm99 °FScattered clouds.18 mph31%29.77 "Hg4 mi
11:30 am99 °FScattered clouds.18 mph31%29.77 "Hg4 mi
11:00 am99 °FScattered clouds.18 mph31%29.77 "Hg4 mi
10:30 am95 °FScattered clouds.18 mph34%29.77 "Hg3 mi
10:00 am95 °FScattered clouds.16 mph34%29.77 "Hg3 mi
9:30 am91 °FScattered clouds.12 mph38%29.74 "Hg3 mi
9:00 am90 °FScattered clouds.12 mph41%29.74 "Hg3 mi
8:30 am84 °FScattered clouds.7 mph43%29.74 "Hg3 mi
7:00 am82 °FPartly sunny.7 mph48%29.74 "Hg4 mi
Weather by CustomWeather, © 2017

See weather overviewHow to use our weather pages